User: anonymous   Login
Location: Peebles
(55.6412°N, 3.1714°W)
Time: 02:27:40
(UTC+01:00)
Language:

FENGYUN 1C DEB - Orbit

View from above orbital plane
View from above orbital plane
View from above satellite
View from above satellite

Ground track
Ground track

The orbit data is extracted from the following two-line orbital elements,

1 38135U 99025EQG 22180.42255826  .00000579  00000-0  22229-3 0  9993
2 38135  98.8237 230.7522 0239102 121.2486 241.2353 14.19734216430983
Epoch (UTC): 29 June 2022 10:08:29
Eccentricity: 0.0239102
inclination: 98.8237°
perigee height: 654 km
apogee height: 998 km
right ascension of ascending node: 230.7522°
argument of perigee: 121.2486°
revolutions per day: 14.19734216
mean anomaly at epoch: 241.2353°
orbit number at epoch: 43098

The dashed part of the orbit path shows where the satellite is in the earth's shadow,  

DLR